Regional Weather Roundup
Issued by NWS Green Bay, WI

Home | Current Version | Previous Version | Text Only | Print | Product List | Glossary On
Versions: 1 2 3 4 5 6 7 8 9 10 11 12 13 14 15 16 17 18 19 20 21 22 23 24 25 26 27 28 29 30 31 32 33 34 35 36 37 38 39 40 41 42 43 44 45 46 47 48 49 50
000
ASUS43 KGRB 181859
RWRGRB

NORTH-CENTRAL AND NORTHEAST WISCONSIN REGIONAL WEATHER ROUNDUP
NATIONAL WEATHER SERVICE GREEN BAY WI
200 PM CDT SAT APR 18 2015

WIZ005-009-010>012-018-019-182000-
NORTH CENTRAL WISCONSIN

CITY           SKY/WX    TMP DP  RH WIND       PRES   REMARKS
IRONWOOD       SUNNY     57  27  30 E15G21    30.12F
MANITOWISH WTR NOT AVBL
ARBOR VITAE    NOT AVBL
EAGLE RIVER    NOT AVBL
LAND O LAKES   NOT AVBL
RHINELANDER    SUNNY     61  24  24 E10G23    30.15F
PHILLIPS       NOT AVBL
ANTIGO         NOT AVBL
TOMAHAWK       NOT AVBL
MERRILL        NOT AVBL
$$

WIZ013-073-182000-
NORTHEAST WISCONSIN

CITY           SKY/WX    TMP DP  RH WIND       PRES   REMARKS
IRON MOUNTAIN  SUNNY     59  24  26 NE9       30.18F
MARINETTE      MOSUNNY   52  34  50 E14       30.21S
$$

WIZ017-030-035>037-045-182000-
CENTRAL WISCONSIN

CITY           SKY/WX    TMP DP  RH WIND       PRES   REMARKS
MEDFORD        NOT AVBL
WAUSAU         MOSUNNY   61  27  27 SE17      30.13F
MOSINEE        SUNNY     61  32  33 E14       30.15F
MARSHFIELD     MOSUNNY   62  31  31 E15       30.11F
WISC RAPIDS    MOSUNNY   63  23  21 E17G24    30.14S
STEVENS POINT  NOT AVBL
WAUPACA        NOT AVBL
SHAWANO        NOT AVBL
CLINTONVILLE   NOT AVBL
$$

WIZ038-039-048-051-182000-
FOX VALLEY

CITY           SKY/WX    TMP DP  RH WIND       PRES   REMARKS
NWS GREEN BAY  MOSUNNY   55  38  52 NE18      30.18F
APPLETON       MOSUNNY   57  32  38 NE14G21   30.17F
OSHKOSH        SUNNY     58  34  40 NE13G21   30.15F
FOND DU LAC    SUNNY     62  30  29 E14G23    30.14F
$$

WIZ022-050-052-182000-
EAST CENTRAL WISCONSIN

CITY           SKY/WX    TMP DP  RH WIND       PRES   REMARKS
STURGEON BAY   MOSUNNY   52  28  40 NE13      30.22F
MANITOWOC      NOT AVBL
SHEBOYGAN      SUNNY     55  37  50 NE17      30.16S
$$

LMZ563-521-522-541>543-182000-
LAKESHORE

STATION/POSITION TIME  TEMP    WIND        PRES    VSBY  WAVE
                       AIR SEA DIR/SP/G                  HT/PER
                 (UTC) (F)     (DEG/KT/KT) (MB)    (MI)  (FT/S)
SHEBOYGAN LKSHOR 1800   40      10/ 22/ 24 1022.1F
KEWAUNEE LKSHORE 1800   45      30/ 13/ 20 1021.6F
NORTHPORT PIER   1800   44     340/  3/  4 1023.4F
SISTER BAY LKSHO 1800   49     360/ 14/ 17   N/A
CHAMBERS ISLAND  1800   44      20/ 12/ 13 1023.4F
MENOMINEE LKSHOR 1800   45      50/ 14/ 15 1023.5F
$$


USA.gov is the U.S. government's official web portal to all federal, state and local government web resources and services.